Regional Weather Roundup
Issued by NWS

Home | Current Version | Previous Version | Text Only | Print | Product List | Glossary Off
Versions: 1 2 3 4 5 6 7 8 9 10 11 12 13 14 15 16 17 18 19 20 21 22 23 24 25 26 27 28 29 30 31 32 33 34 35 36 37 38 39 40 41 42 43 44 45 46 47 48 49 50

000
ASUS45 KBOI 281210
RWRID

IDAHO REGIONAL WEATHER ROUNDUP
NATIONAL WEATHER SERVICE BOISE ID
600 AM MDT TUE JUL 28 2015

NOTE: "FAIR" INDICATES FEW OR NO CLOUDS BELOW 12000 FEET
WITH NO SIGNIFICANT WEATHER AND/OR OBSTRUCTIONS TO VISIBILITY

IDZ012-014-281300-
SOUTHWEST IDAHO


CITY           SKY/WX    TMP DP  RH WIND       PRES   REMARKS
BOISE          CLEAR     51  36  56 SE7       30.22R
CALDWELL       CLEAR     48  30  49 CALM      30.23R
MOUNTAIN HOME  CLEAR     51  35  53 N6        30.21R
$$

IDZ016-017-281300-
SOUTHCENTRAL IDAHO


CITY           SKY/WX    TMP DP  RH WIND       PRES   REMARKS
BURLEY         CLEAR     44  34  67 W7        30.23R
JEROME         CLEAR     41  34  76 SE5       30.24R
TWIN FALLS     CLEAR     51  31  46 SW13      30.22R
$$

IDZ019>023-281300-
SOUTHEAST IDAHO


CITY           SKY/WX    TMP DP  RH WIND       PRES   REMARKS
IDAHO FALLS    CLEAR     38  36  92 N3        30.27R
POCATELLO      CLEAR     42  41  96 CALM      30.27R
REXBURG        CLEAR     38  35  89 NE5       30.28R WCI  34
$$

IDZ006-010-011-018-031-032-281300-
CENTRAL IDAHO MOUNTAINS


CITY           SKY/WX    TMP DP  RH WIND       PRES   REMARKS
MCCALL         CLEAR     37  34  89 CALM      30.27S
HAILEY         CLEAR     39  34  81 NW9       30.30R WCI  33
STANLEY        NOT AVBL
SALMON         MOCLDY    46  39  76 S3        30.28R
CHALLIS        CLEAR     40  37  89 SE3       30.30S
$$

IDZ002-004-006-007-026-281300-
NORTHERN IDAHO


CITY           SKY/WX    TMP DP  RH WIND       PRES   REMARKS
LEWISTON       CLEAR     54  48  80 E5        30.20R
LOWELL           N/A     53  51  93 CALM      30.27S
COEUR D`ALENE  CLEAR     54  46  76 S10       30.18R
MULLAN PASS    CLEAR     40  37  89 NW3       30.24S
$$



USA.gov is the U.S. government's official web portal to all federal, state and local government web resources and services.